QPF
0.00 0.00 0.00 0.00 0.00 0.00 0.00 0.00 0.02 0.03 0.02 0.01 0.02 0.04 0.02 0.01 0.01 0.01 0.01 0.01 0.01 0.00 0.00 0.00 0.00 0.00 0.00 0.00 0.00 0.00 0.00 0.00 0.00 0.00 0.00 0.00 0.00 0.00 0.00 0.00 0.00 0.00 0.00 0.00 0.00 0.00 0.00 0.00 0.00
0.00 0.00 0.00 0.00 0.00 0.00 0.00 0.01 0.02 0.02 0.02 0.02 0.04 0.02 0.00 0.00 0.00 0.00 0.00 0.00 0.00 0.00 0.00 0.00 0.00 0.00 0.00 0.00 0.00 0.00 0.00 0.00 0.00 0.00 0.00 0.00 0.00 0.00 0.00 0.00 0.00 0.00 0.00 0.00 0.00 0.00 0.00 0.00 0.00
0.00 0.00 0.00 0.00 0.00 0.00 0.00 0.01 0.02 0.03 0.03 0.02 0.03 0.02 0.00 0.00 0.00 0.00 0.00 0.00 0.00 0.00 0.00 0.00 0.00 0.00 0.00 0.00 0.00 0.00 0.00 0.00 0.00 0.00 0.00 0.00 0.00 0.00 0.00 0.00 0.00 0.00 0.00 0.00 0.00 0.00 0.00 0.00 0.00
0.00 0.00 0.00 0.00 0.00 0.00 0.00 0.01 0.01 0.02 0.03 0.02 0.01 0.00 0.00 0.00 0.00 0.00 0.00 0.00 0.00 0.00 0.00 0.00 0.00 0.00 0.00 0.00 0.00 0.00 0.00 0.00 0.00 0.00 0.00 0.00 0.00 0.00 0.00 0.00 0.00 0.00 0.00 0.00 0.00 0.00 0.00 0.00 0.00
0.00 0.00 0.00 0.00 0.00 0.00 0.00 0.02 0.02 0.02 0.02 0.02 0.01 0.00 0.00 0.00 0.00 0.00 0.00 0.00 0.00 0.01 0.00 0.00 0.00 0.00 0.00 0.00 0.00 0.00 0.00 0.00 0.00 0.00 0.00 0.00 0.00 0.00 0.00 0.00 0.00 0.00 0.00 0.00 0.00 0.00 0.00 0.00 0.00
0.00 0.00 0.00 0.00 0.00 0.00 0.01 0.01 0.01 0.01 0.02 0.03 0.02 0.02 0.01 0.00 0.00 0.00 0.00 0.00 0.01 0.01 0.00 0.00 0.00 0.00 0.00 0.00 0.00 0.00 0.00 0.00 0.00 0.00 0.00 0.00 0.00 0.00 0.00 0.00 0.00 0.00 0.00 0.00 0.00 0.00 0.00 0.00 0.00
0.00 0.00 0.00 0.00 0.00 0.00 0.00 0.01 0.01 0.01 0.03 0.03 0.03 0.04 0.02 0.00 0.00 0.00 0.00 0.00 0.01 0.01 0.00 0.00 0.00 0.00 0.00 0.00 0.00 0.00 0.00 0.00 0.00 0.00 0.00 0.00 0.00 0.00 0.00 0.00 0.00 0.00 0.00 0.00 0.00 0.00 0.00 0.00 0.00
0.00 0.00 0.00 0.00 0.00 0.00 0.00 0.01 0.01 0.01 0.02 0.03 0.03 0.03 0.02 0.00 0.00 0.00 0.00 0.00 0.01 0.01 0.00 0.00 0.00 0.00 0.00 0.00 0.00 0.00 0.00 0.00 0.00 0.00 0.00 0.00 0.00 0.00 0.00 0.00 0.00 0.00 0.00 0.00 0.00 0.00 0.00 0.00 0.00
0.00 0.00 0.00 0.00 0.00 0.00 0.00 0.01 0.02 0.02 0.02 0.02 0.01 0.02 0.02 0.01 0.00 0.00 0.00 0.00 0.01 0.02 0.00 0.00 0.00 0.00 0.00 0.00 0.00 0.00 0.00 0.00 0.00 0.00 0.00 0.00 0.00 0.00 0.00 0.00 0.00 0.00 0.00 0.00 0.00 0.00 0.00 0.00 0.00
0.00 0.00 0.00 0.00 0.00 0.00 0.00 0.01 0.01 0.01 0.01 0.02 0.02 0.03 0.04 0.02 0.01 0.01 0.01 0.01 0.01 0.01 0.01 0.00 0.00 0.00 0.00 0.00 0.00 0.00 0.00 0.00 0.00 0.00 0.00 0.00 0.00 0.00 0.00 0.00 0.00 0.00 0.00 0.00 0.00 0.00 0.00 0.00 0.00
0.00 0.00 0.00 0.00 0.00 0.00 0.00 0.00 0.01 0.01 0.01 0.01 0.04 0.06 0.04 0.01 0.01 0.01 0.02 0.01 0.01 0.01 0.01 0.01 0.01 0.00 0.00 0.00 0.00 0.00 0.00 0.00 0.00 0.00 0.00 0.00 0.01 0.00 0.00 0.00 0.00 0.00 0.00 0.00 0.00 0.00 0.00 0.00 0.00
0.00 0.00 0.00 0.00 0.00 0.00 0.00 0.00 0.00 0.01 0.01 0.02 0.03 0.05 0.04 0.02 0.01 0.02 0.04 0.04 0.03 0.02 0.01 0.01 0.01 0.00 0.00 0.00 0.00 0.00 0.00 0.00 0.00 0.00 0.00 0.00 0.01 0.02 0.02 0.01 0.01 0.01 0.01 0.01 0.00 0.00 0.00 0.00 0.00
0.00 0.00 0.00 0.00 0.00 0.00 0.00 0.00 0.00 0.00 0.00 0.01 0.03 0.03 0.03 0.03 0.02 0.03 0.10 0.08 0.05 0.03 0.03 0.02 0.01 0.00 0.00 0.00 0.00 0.00 0.00 0.00 0.00 0.00 0.01 0.00 0.01 0.01 0.03 0.03 0.02 0.02 0.02 0.02 0.02 0.02 0.01 0.00 0.00
0.00 0.00 0.00 0.00 0.00 0.00 0.00 0.00 0.00 0.00 0.00 0.01 0.01 0.03 0.04 0.04 0.04 0.05 0.13 0.09 0.04 0.04 0.04 0.03 0.02 0.01 0.00 0.00 0.00 0.00 0.00 0.00 0.00 0.00 0.00 0.00 0.00 0.01 0.01 0.02 0.01 0.01 0.01 0.02 0.02 0.02 0.01 0.01 0.01
0.00 0.00 0.00 0.00 0.00 0.00 0.00 0.00 0.00 0.00 0.00 0.00 0.01 0.03 0.07 0.09 0.07 0.06 0.08 0.06 0.04 0.07 0.08 0.05 0.02 0.01 0.00 0.00 0.00 0.00 0.00 0.00 0.00 0.00 0.00 0.00 0.00 0.00 0.00 0.01 0.00 0.00 0.00 0.01 0.01 0.00 0.00 0.01 0.01
0.00 0.00 0.00 0.00 0.00 0.00 0.00 0.00 0.00 0.00 0.00 0.00 0.01 0.02 0.05 0.06 0.05 0.05 0.08 0.07 0.05 0.08 0.09 0.04 0.02 0.01 0.01 0.01 0.01 0.01 0.00 0.00 0.00 0.00 0.00 0.00 0.00 0.00 0.00 0.01 0.01 0.00 0.00 0.00 0.00 0.00 0.00 0.00 0.00
0.00 0.00 0.00 0.00 0.00 0.00 0.00 0.00 0.00 0.00 0.00 0.00 0.00 0.01 0.02 0.02 0.02 0.03 0.07 0.09 0.10 0.13 0.08 0.04 0.03 0.02 0.03 0.03 0.02 0.03 0.03 0.03 0.02 0.02 0.01 0.01 0.01 0.01 0.01 0.01 0.02 0.02 0.01 0.01 0.01 0.01 0.00 0.00 0.00
0.00 0.00 0.00 0.00 0.00 0.00 0.00 0.00 0.00 0.00 0.00 0.00 0.00 0.01 0.02 0.03 0.03 0.03 0.06 0.12 0.18 0.13 0.08 0.08 0.07 0.08 0.07 0.05 0.04 0.04 0.04 0.05 0.04 0.04 0.03 0.04 0.04 0.03 0.03 0.04 0.04 0.03 0.03 0.02 0.02 0.01 0.01 0.00 0.00
0.00 0.00 0.00 0.00 0.00 0.00 0.00 0.00 0.00 0.00 0.00 0.00 0.00 0.00 0.01 0.01 0.01 0.03 0.09 0.17 0.16 0.09 0.06 0.07 0.10 0.13 0.10 0.06 0.06 0.06 0.06 0.06 0.07 0.08 0.08 0.09 0.08 0.07 0.06 0.05 0.04 0.04 0.04 0.02 0.02 0.01 0.01 0.00 0.00
0.00 0.00 0.00 0.00 0.00 0.00 0.00 0.00 0.00 0.00 0.00 0.00 0.00 0.00 0.00 0.00 0.00 0.03 0.08 0.07 0.04 0.04 0.05 0.07 0.06 0.07 0.09 0.11 0.10 0.10 0.09 0.08 0.09 0.12 0.14 0.15 0.13 0.11 0.08 0.05 0.03 0.03 0.02 0.02 0.01 0.01 0.00 0.00 0.00
0.00 0.00 0.00 0.00 0.00 0.00 0.00 0.00 0.00 0.00 0.00 0.00 0.00 0.00 0.00 0.00 0.00 0.01 0.02 0.03 0.03 0.06 0.08 0.10 0.11 0.16 0.20 0.17 0.15 0.13 0.12 0.12 0.15 0.17 0.18 0.17 0.14 0.11 0.08 0.05 0.03 0.02 0.01 0.01 0.00 0.00 0.00 0.00 0.00
0.00 0.00 0.00 0.00 0.00 0.00 0.00 0.00 0.00 0.00 0.00 0.00 0.00 0.00 0.00 0.00 0.00 0.00 0.00 0.01 0.05 0.10 0.14 0.17 0.20 0.25 0.26 0.22 0.19 0.20 0.19 0.18 0.20 0.21 0.19 0.16 0.12 0.09 0.06 0.04 0.03 0.02 0.01 0.00 0.00 0.00 0.00 0.00 0.00
0.00 0.00 0.00 0.00 0.00 0.00 0.00 0.00 0.00 0.00 0.00 0.00 0.00 0.00 0.00 0.00 0.00 0.00 0.00 0.03 0.08 0.17 0.22 0.24 0.26 0.29 0.29 0.25 0.25 0.25 0.22 0.21 0.21 0.19 0.17 0.13 0.09 0.06 0.04 0.03 0.02 0.01 0.00 0.00 0.00 0.00 0.00 0.00 0.00
0.00 0.00 0.00 0.00 0.00 0.00 0.00 0.00 0.00 0.00 0.00 0.00 0.00 0.00 0.00 0.00 0.00 0.00 0.01 0.04 0.10 0.15 0.20 0.19 0.18 0.20 0.22 0.23 0.21 0.19 0.19 0.19 0.18 0.14 0.10 0.07 0.05 0.03 0.02 0.01 0.01 0.01 0.00 0.00 0.00 0.00 0.00 0.00 0.00
0.00 0.00 0.00 0.00 0.00 0.00 0.00 0.00 0.00 0.00 0.00 0.00 0.00 0.00 0.00 0.00 0.00 0.01 0.03 0.05 0.10 0.13 0.14 0.14 0.14 0.12 0.11 0.11 0.12 0.12 0.10 0.09 0.08 0.06 0.05 0.03 0.02 0.02 0.01 0.01 0.01 0.00 0.00 0.00 0.00 0.00 0.00 0.00 0.00
0.00 0.00 0.00 0.00 0.00 0.00 0.00 0.00 0.00 0.00 0.00 0.00 0.00 0.00 0.00 0.01 0.01 0.03 0.06 0.09 0.12 0.13 0.13 0.13 0.13 0.10 0.08 0.08 0.08 0.07 0.07 0.06 0.04 0.03 0.02 0.01 0.01 0.01 0.00 0.00 0.00 0.00 0.00 0.00 0.00 0.00 0.00 0.00 0.00
0.00 0.00 0.00 0.00 0.00 0.00 0.00 0.00 0.00 0.00 0.00 0.00 0.00 0.01 0.01 0.02 0.03 0.07 0.11 0.13 0.13 0.12 0.10 0.10 0.08 0.06 0.06 0.05 0.05 0.05 0.05 0.04 0.03 0.01 0.01 0.01 0.01 0.00 0.00 0.00 0.00 0.00 0.00 0.00 0.00 0.00 0.00 0.00 0.00
0.00 0.00 0.00 0.00 0.00 0.00 0.00 0.00 0.00 0.00 0.00 0.01 0.01 0.01 0.02 0.04 0.06 0.09 0.11 0.12 0.10 0.08 0.06 0.05 0.03 0.03 0.03 0.03 0.03 0.03 0.03 0.03 0.02 0.01 0.01 0.01 0.01 0.00 0.00 0.00 0.00 0.00 0.00 0.00 0.00 0.00 0.00 0.00 0.00
0.00 0.00 0.00 0.00 0.00 0.00 0.00 0.00 0.00 0.00 0.00 0.01 0.01 0.02 0.03 0.05 0.08 0.11 0.13 0.12 0.09 0.05 0.04 0.03 0.02 0.01 0.01 0.02 0.02 0.02 0.02 0.02 0.02 0.01 0.01 0.01 0.00 0.00 0.00 0.00 0.00 0.00 0.01 0.00 0.00 0.00 0.00 0.00 0.00
0.00 0.00 0.00 0.00 0.00 0.00 0.00 0.01 0.01 0.01 0.01 0.01 0.01 0.03 0.06 0.09 0.13 0.18 0.18 0.13 0.09 0.06 0.04 0.02 0.01 0.01 0.01 0.01 0.01 0.01 0.01 0.01 0.01 0.01 0.01 0.01 0.01 0.01 0.01 0.01 0.01 0.01 0.00 0.00 0.00 0.00 0.00 0.00 0.00
MSLP
1011.32 1012.39 1013.68 1014.95 1015.97 1016.56 1016.65 1016.27 1015.55 1014.70 1013.94 1013.43 1013.26 1013.43 1013.83 1014.32 1014.74 1014.95 1014.90 1014.60 1014.15 1013.68 1013.30 1013.12 1013.18 1013.45 1013.86 1014.30 1014.70 1015.00 1015.18 1015.27 1015.34 1015.44 1015.61 1015.87 1016.21 1016.56 1016.89 1017.13 1017.28 1017.33 1017.31 1017.28 1017.26 1017.29 1017.37 1017.49 1017.61
1011.95 1013.18 1014.52 1015.73 1016.57 1016.90 1016.68 1015.98 1014.96 1013.87 1012.93 1012.31 1012.10 1012.26 1012.71 1013.26 1013.75 1014.06 1014.11 1013.95 1013.65 1013.33 1013.11 1013.08 1013.26 1013.61 1014.07 1014.55 1014.95 1015.25 1015.43 1015.53 1015.61 1015.72 1015.91 1016.17 1016.48 1016.81 1017.09 1017.29 1017.39 1017.41 1017.39 1017.35 1017.34 1017.38 1017.46 1017.57 1017.67
1012.72 1014.05 1015.38 1016.46 1017.09 1017.15 1016.63 1015.64 1014.39 1013.11 1012.06 1011.38 1011.16 1011.34 1011.82 1012.42 1012.97 1013.35 1013.50 1013.46 1013.29 1013.11 1013.03 1013.12 1013.39 1013.81 1014.31 1014.79 1015.20 1015.49 1015.67 1015.77 1015.86 1015.98 1016.16 1016.40 1016.68 1016.96 1017.18 1017.33 1017.39 1017.40 1017.37 1017.35 1017.37 1017.43 1017.52 1017.62 1017.70
1013.54 1014.90 1016.15 1017.07 1017.47 1017.27 1016.51 1015.31 1013.91 1012.55 1011.46 1010.78 1010.58 1010.80 1011.30 1011.93 1012.52 1012.95 1013.17 1013.21 1013.15 1013.08 1013.11 1013.28 1013.61 1014.06 1014.55 1015.02 1015.40 1015.67 1015.84 1015.95 1016.05 1016.18 1016.35 1016.57 1016.81 1017.03 1017.20 1017.31 1017.34 1017.34 1017.33 1017.34 1017.39 1017.48 1017.59 1017.69 1017.75
1014.29 1015.60 1016.72 1017.44 1017.62 1017.21 1016.27 1014.97 1013.53 1012.18 1011.15 1010.54 1010.40 1010.66 1011.19 1011.83 1012.43 1012.87 1013.13 1013.23 1013.24 1013.26 1013.35 1013.57 1013.92 1014.35 1014.80 1015.22 1015.55 1015.78 1015.94 1016.05 1016.16 1016.30 1016.47 1016.68 1016.89 1017.07 1017.20 1017.27 1017.29 1017.29 1017.31 1017.35 1017.45 1017.56 1017.69 1017.79 1017.84
1014.85 1016.05 1016.98 1017.48 1017.46 1016.89 1015.87 1014.56 1013.19 1011.96 1011.06 1010.58 1010.53 1010.85 1011.39 1012.02 1012.59 1013.03 1013.30 1013.44 1013.50 1013.57 1013.71 1013.94 1014.27 1014.65 1015.03 1015.37 1015.63 1015.82 1015.95 1016.06 1016.19 1016.34 1016.54 1016.74 1016.94 1017.10 1017.20 1017.25 1017.27 1017.28 1017.32 1017.41 1017.53 1017.68 1017.82 1017.91 1017.94
1015.17 1016.17 1016.87 1017.14 1016.93 1016.25 1015.23 1014.00 1012.78 1011.75 1011.05 1010.73 1010.79 1011.15 1011.70 1012.30 1012.83 1013.24 1013.51 1013.68 1013.79 1013.91 1014.08 1014.32 1014.61 1014.93 1015.23 1015.48 1015.66 1015.79 1015.89 1016.00 1016.15 1016.34 1016.55 1016.78 1016.98 1017.13 1017.23 1017.27 1017.28 1017.31 1017.37 1017.47 1017.63 1017.79 1017.94 1018.02 1018.03
1015.21 1015.96 1016.38 1016.41 1016.03 1015.30 1014.32 1013.24 1012.23 1011.43 1010.95 1010.81 1010.98 1011.38 1011.90 1012.45 1012.94 1013.31 1013.59 1013.78 1013.95 1014.13 1014.34 1014.60 1014.88 1015.14 1015.36 1015.53 1015.64 1015.71 1015.79 1015.90 1016.07 1016.29 1016.54 1016.79 1017.01 1017.17 1017.26 1017.29 1017.31 1017.33 1017.40 1017.52 1017.68 1017.85 1017.99 1018.07 1018.07
1015.00 1015.46 1015.59 1015.39 1014.86 1014.08 1013.18 1012.27 1011.49 1010.94 1010.67 1010.69 1010.94 1011.36 1011.85 1012.34 1012.76 1013.11 1013.39 1013.63 1013.87 1014.13 1014.41 1014.71 1014.99 1015.23 1015.41 1015.51 1015.57 1015.60 1015.66 1015.78 1015.96 1016.21 1016.49 1016.77 1017.00 1017.17 1017.26 1017.29 1017.30 1017.33 1017.39 1017.50 1017.65 1017.82 1017.95 1018.02 1018.02
1014.63 1014.79 1014.63 1014.19 1013.53 1012.73 1011.91 1011.18 1010.61 1010.28 1010.20 1010.34 1010.65 1011.05 1011.49 1011.90 1012.27 1012.59 1012.88 1013.18 1013.50 1013.85 1014.23 1014.60 1014.92 1015.17 1015.34 1015.42 1015.44 1015.46 1015.51 1015.63 1015.83 1016.10 1016.40 1016.69 1016.94 1017.11 1017.20 1017.23 1017.23 1017.25 1017.29 1017.39 1017.53 1017.68 1017.80 1017.88 1017.88
1014.19 1014.07 1013.66 1013.02 1012.24 1011.43 1010.69 1010.10 1009.72 1009.57 1009.63 1009.84 1010.16 1010.52 1010.88 1011.20 1011.50 1011.79 1012.10 1012.45 1012.86 1013.32 1013.80 1014.25 1014.65 1014.94 1015.13 1015.23 1015.26 1015.28 1015.34 1015.46 1015.67 1015.94 1016.24 1016.54 1016.78 1016.95 1017.05 1017.08 1017.08 1017.09 1017.12 1017.21 1017.32 1017.46 1017.58 1017.66 1017.68
1013.79 1013.44 1012.81 1012.01 1011.16 1010.35 1009.69 1009.22 1008.97 1008.94 1009.08 1009.32 1009.61 1009.90 1010.16 1010.39 1010.62 1010.87 1011.18 1011.57 1012.04 1012.58 1013.15 1013.70 1014.17 1014.54 1014.79 1014.93 1015.00 1015.05 1015.13 1015.26 1015.46 1015.72 1016.01 1016.30 1016.54 1016.71 1016.81 1016.85 1016.86 1016.87 1016.91 1016.99 1017.09 1017.22 1017.34 1017.43 1017.48
1013.51 1012.98 1012.21 1011.32 1010.43 1009.64 1009.05 1008.67 1008.51 1008.55 1008.71 1008.93 1009.15 1009.35 1009.51 1009.64 1009.78 1009.97 1010.26 1010.65 1011.16 1011.74 1012.37 1012.99 1013.54 1013.98 1014.30 1014.52 1014.66 1014.77 1014.88 1015.02 1015.22 1015.47 1015.73 1015.99 1016.22 1016.39 1016.51 1016.58 1016.62 1016.66 1016.72 1016.80 1016.91 1017.04 1017.16 1017.26 1017.34
1013.38 1012.76 1011.92 1011.00 1010.12 1009.38 1008.85 1008.54 1008.43 1008.47 1008.61 1008.76 1008.90 1008.99 1009.03 1009.06 1009.12 1009.24 1009.47 1009.83 1010.31 1010.90 1011.54 1012.18 1012.78 1013.29 1013.70 1014.02 1014.25 1014.43 1014.59 1014.77 1014.97 1015.19 1015.43 1015.67 1015.89 1016.07 1016.21 1016.33 1016.42 1016.51 1016.61 1016.73 1016.85 1016.99 1017.11 1017.23 1017.32
1013.38 1012.73 1011.90 1011.02 1010.20 1009.53 1009.06 1008.78 1008.67 1008.68 1008.75 1008.81 1008.84 1008.82 1008.76 1008.69 1008.66 1008.71 1008.87 1009.16 1009.58 1010.11 1010.71 1011.34 1011.96 1012.53 1013.03 1013.44 1013.79 1014.07 1014.31 1014.53 1014.75 1014.96 1015.18 1015.39 1015.60 1015.80 1015.99 1016.17 1016.33 1016.50 1016.65 1016.81 1016.96 1017.11 1017.24 1017.36 1017.46
1013.45 1012.84 1012.08 1011.29 1010.57 1009.99 1009.56 1009.30 1009.15 1009.08 1009.03 1008.97 1008.88 1008.75 1008.60 1008.46 1008.36 1008.35 1008.44 1008.65 1008.98 1009.42 1009.95 1010.53 1011.15 1011.75 1012.33 1012.85 1013.32 1013.72 1014.06 1014.35 1014.59 1014.81 1015.02 1015.23 1015.44 1015.66 1015.90 1016.14 1016.39 1016.63 1016.86 1017.07 1017.26 1017.42 1017.55 1017.67 1017.77
1013.52 1012.99 1012.35 1011.70 1011.10 1010.61 1010.22 1009.93 1009.70 1009.50 1009.30 1009.09 1008.86 1008.62 1008.40 1008.21 1008.09 1008.05 1008.09 1008.24 1008.49 1008.83 1009.28 1009.80 1010.39 1011.02 1011.67 1012.30 1012.90 1013.43 1013.88 1014.25 1014.55 1014.79 1015.01 1015.21 1015.43 1015.68 1015.97 1016.28 1016.61 1016.93 1017.23 1017.49 1017.71 1017.88 1018.01 1018.12 1018.22
1013.52 1013.11 1012.62 1012.13 1011.67 1011.27 1010.89 1010.54 1010.18 1009.80 1009.40 1009.01 1008.63 1008.29 1008.02 1007.83 1007.73 1007.70 1007.76 1007.88 1008.08 1008.36 1008.73 1009.19 1009.75 1010.40 1011.11 1011.85 1012.57 1013.23 1013.81 1014.27 1014.64 1014.92 1015.15 1015.36 1015.60 1015.87 1016.20 1016.57 1016.97 1017.35 1017.71 1018.01 1018.25 1018.43 1018.56 1018.67 1018.75
1013.40 1013.13 1012.82 1012.51 1012.20 1011.87 1011.49 1011.03 1010.50 1009.89 1009.26 1008.65 1008.11 1007.68 1007.39 1007.23 1007.20 1007.26 1007.38 1007.55 1007.75 1008.00 1008.33 1008.75 1009.29 1009.95 1010.71 1011.53 1012.36 1013.15 1013.84 1014.41 1014.85 1015.17 1015.43 1015.66 1015.91 1016.20 1016.56 1016.97 1017.41 1017.84 1018.24 1018.57 1018.82 1019.00 1019.13 1019.23 1019.32
1013.13 1013.03 1012.92 1012.82 1012.66 1012.40 1011.99 1011.40 1010.66 1009.80 1008.90 1008.05 1007.34 1006.82 1006.52 1006.43 1006.52 1006.72 1006.98 1007.25 1007.53 1007.81 1008.14 1008.54 1009.07 1009.73 1010.52 1011.40 1012.31 1013.19 1013.98 1014.63 1015.13 1015.51 1015.80 1016.04 1016.30 1016.61 1016.98 1017.42 1017.88 1018.34 1018.75 1019.09 1019.35 1019.53 1019.65 1019.75 1019.85
1012.72 1012.81 1012.94 1013.05 1013.05 1012.86 1012.42 1011.71 1010.74 1009.61 1008.44 1007.35 1006.46 1005.85 1005.55 1005.56 1005.80 1006.19 1006.63 1007.07 1007.47 1007.84 1008.20 1008.61 1009.13 1009.77 1010.56 1011.45 1012.40 1013.33 1014.18 1014.89 1015.45 1015.87 1016.18 1016.45 1016.72 1017.04 1017.41 1017.85 1018.31 1018.77 1019.18 1019.52 1019.77 1019.95 1020.07 1020.18 1020.28
1012.20 1012.51 1012.89 1013.23 1013.41 1013.32 1012.86 1012.03 1010.87 1009.49 1008.05 1006.73 1005.68 1004.99 1004.71 1004.82 1005.22 1005.82 1006.48 1007.11 1007.67 1008.15 1008.56 1008.98 1009.48 1010.09 1010.83 1011.69 1012.62 1013.54 1014.40 1015.14 1015.73 1016.18 1016.52 1016.81 1017.09 1017.41 1017.79 1018.22 1018.67 1019.12 1019.51 1019.84 1020.08 1020.25 1020.37 1020.48 1020.59
1011.61 1012.17 1012.81 1013.40 1013.78 1013.79 1013.36 1012.45 1011.14 1009.56 1007.92 1006.41 1005.23 1004.47 1004.21 1004.41 1004.97 1005.76 1006.63 1007.46 1008.17 1008.75 1009.23 1009.65 1010.11 1010.65 1011.31 1012.08 1012.93 1013.81 1014.63 1015.36 1015.95 1016.41 1016.77 1017.08 1017.38 1017.70 1018.08 1018.50 1018.94 1019.37 1019.74 1020.05 1020.27 1020.43 1020.55 1020.65 1020.78
1010.99 1011.79 1012.70 1013.54 1014.12 1014.27 1013.91 1012.99 1011.61 1009.92 1008.14 1006.51 1005.24 1004.45 1004.21 1004.48 1005.17 1006.12 1007.15 1008.14 1008.99 1009.66 1010.17 1010.58 1010.97 1011.41 1011.95 1012.60 1013.33 1014.10 1014.85 1015.53 1016.10 1016.56 1016.93 1017.25 1017.57 1017.91 1018.28 1018.70 1019.12 1019.53 1019.89 1020.17 1020.38 1020.52 1020.63 1020.72 1020.84
1010.39 1011.41 1012.55 1013.61 1014.39 1014.70 1014.45 1013.59 1012.23 1010.52 1008.71 1007.05 1005.75 1004.96 1004.75 1005.08 1005.85 1006.90 1008.05 1009.14 1010.07 1010.78 1011.30 1011.67 1011.98 1012.31 1012.71 1013.21 1013.79 1014.43 1015.07 1015.67 1016.20 1016.64 1017.02 1017.36 1017.69 1018.04 1018.43 1018.84 1019.25 1019.64 1019.98 1020.25 1020.43 1020.56 1020.65 1020.72 1020.81
1009.85 1011.02 1012.33 1013.56 1014.51 1014.99 1014.87 1014.15 1012.89 1011.28 1009.54 1007.94 1006.69 1005.94 1005.77 1006.13 1006.95 1008.04 1009.23 1010.35 1011.31 1012.03 1012.52 1012.85 1013.07 1013.28 1013.54 1013.88 1014.31 1014.81 1015.34 1015.85 1016.31 1016.73 1017.10 1017.45 1017.79 1018.16 1018.55 1018.96 1019.37 1019.74 1020.06 1020.31 1020.48 1020.58 1020.64 1020.69 1020.73
1009.38 1010.63 1012.02 1013.35 1014.42 1015.03 1015.07 1014.53 1013.46 1012.03 1010.47 1009.03 1007.90 1007.24 1007.11 1007.51 1008.31 1009.39 1010.55 1011.65 1012.58 1013.27 1013.73 1013.99 1014.14 1014.25 1014.39 1014.60 1014.90 1015.27 1015.68 1016.10 1016.50 1016.88 1017.24 1017.58 1017.93 1018.31 1018.70 1019.11 1019.50 1019.87 1020.17 1020.39 1020.54 1020.62 1020.65 1020.65 1020.65
1009.05 1010.26 1011.64 1012.98 1014.09 1014.79 1014.98 1014.63 1013.81 1012.64 1011.35 1010.13 1009.19 1008.67 1008.61 1009.01 1009.78 1010.79 1011.87 1012.90 1013.76 1014.39 1014.80 1015.03 1015.12 1015.17 1015.24 1015.36 1015.56 1015.82 1016.13 1016.47 1016.81 1017.15 1017.47 1017.81 1018.15 1018.52 1018.91 1019.31 1019.69 1020.03 1020.31 1020.52 1020.65 1020.70 1020.69 1020.65 1020.59
1008.89 1009.97 1011.23 1012.47 1013.54 1014.28 1014.59 1014.44 1013.88 1013.02 1012.04 1011.12 1010.42 1010.05 1010.08 1010.48 1011.20 1012.11 1013.08 1013.99 1014.75 1015.33 1015.70 1015.90 1015.99 1016.02 1016.06 1016.14 1016.28 1016.48 1016.72 1016.99 1017.27 1017.56 1017.85 1018.15 1018.48 1018.83 1019.20 1019.57 1019.93 1020.25 1020.51 1020.69 1020.79 1020.82 1020.78 1020.69 1020.57
1008.93 1009.82 1010.87 1011.95 1012.90 1013.62 1014.00 1014.03 1013.73 1013.19 1012.55 1011.95 1011.50 1011.32 1011.43 1011.84 1012.48 1013.27 1014.11 1014.89 1015.56 1016.06 1016.41 1016.62 1016.73 1016.79 1016.85 1016.94 1017.06 1017.23 1017.42 1017.64 1017.87 1018.10 1018.35 1018.62 1018.91 1019.22 1019.56 1019.90 1020.23 1020.51 1020.74 1020.90 1020.97 1020.97 1020.90 1020.77 1020.60
Thickness
5802 5805 5805 5796 5770 5747 5746 5764 5781 5787 5789 5802 5807 5803 5795 5789 5779 5771 5792 5798 5793 5788 5785 5783 5782 5780 5778 5776 5773 5771 5769 5767 5765 5762 5760 5759 5758 5756 5755 5754 5753 5752 5751 5749 5748 5748 5747 5746 5745
5800 5803 5795 5777 5749 5732 5744 5773 5784 5791 5799 5808 5809 5807 5800 5794 5798 5791 5792 5792 5790 5786 5783 5781 5779 5777 5775 5773 5771 5768 5766 5764 5762 5759 5757 5755 5754 5752 5751 5750 5748 5747 5746 5745 5744 5744 5743 5742 5741
5797 5798 5777 5759 5745 5739 5756 5781 5789 5798 5806 5808 5807 5810 5803 5795 5796 5793 5794 5791 5787 5784 5782 5779 5777 5774 5772 5770 5767 5765 5763 5761 5758 5756 5754 5752 5750 5749 5747 5746 5744 5743 5742 5741 5740 5739 5739 5738 5737
5789 5779 5767 5749 5746 5761 5774 5788 5797 5798 5803 5811 5810 5802 5805 5812 5806 5800 5795 5791 5786 5782 5780 5777 5774 5771 5769 5766 5764 5762 5759 5757 5755 5753 5751 5749 5747 5746 5744 5742 5741 5740 5739 5737 5736 5736 5735 5734 5734
5780 5762 5749 5740 5751 5773 5790 5799 5802 5799 5800 5808 5810 5795 5794 5809 5811 5802 5795 5790 5786 5781 5778 5775 5771 5769 5766 5763 5761 5759 5756 5754 5752 5751 5749 5747 5745 5743 5742 5740 5739 5737 5736 5734 5733 5732 5732 5731 5730
5761 5750 5733 5732 5754 5780 5796 5805 5804 5799 5799 5806 5807 5794 5791 5806 5803 5798 5795 5790 5786 5781 5776 5772 5769 5766 5764 5761 5759 5756 5754 5752 5750 5748 5747 5745 5743 5741 5740 5738 5737 5735 5734 5732 5731 5730 5729 5728 5727
5752 5741 5735 5745 5757 5775 5798 5808 5801 5797 5797 5806 5812 5793 5790 5799 5803 5800 5795 5791 5785 5780 5775 5771 5768 5765 5762 5759 5757 5755 5752 5750 5748 5746 5745 5743 5741 5739 5738 5736 5735 5733 5732 5730 5729 5728 5727 5726 5724
5764 5748 5746 5752 5761 5772 5799 5806 5807 5803 5802 5818 5819 5798 5789 5801 5807 5802 5794 5789 5784 5779 5775 5771 5767 5765 5762 5759 5756 5754 5752 5749 5747 5745 5743 5741 5739 5737 5736 5734 5733 5731 5730 5728 5727 5726 5724 5723 5721
5771 5742 5737 5754 5766 5776 5796 5796 5804 5813 5809 5814 5820 5816 5815 5814 5809 5798 5789 5782 5779 5777 5774 5771 5767 5764 5761 5758 5755 5753 5751 5749 5746 5744 5742 5739 5738 5736 5734 5732 5731 5729 5728 5726 5725 5723 5721 5720 5719
5759 5738 5751 5773 5783 5784 5791 5795 5802 5802 5799 5804 5811 5817 5818 5813 5805 5796 5788 5780 5778 5776 5774 5772 5768 5765 5761 5758 5755 5753 5750 5748 5746 5744 5741 5739 5736 5734 5732 5730 5729 5727 5725 5724 5722 5720 5718 5717 5716
5762 5756 5770 5782 5790 5791 5790 5797 5804 5798 5791 5803 5808 5811 5813 5810 5803 5798 5793 5788 5784 5781 5778 5774 5770 5767 5763 5759 5755 5752 5750 5748 5745 5743 5741 5738 5735 5733 5731 5729 5727 5725 5723 5721 5720 5718 5716 5714 5713
5766 5772 5780 5787 5796 5793 5793 5798 5799 5802 5806 5821 5825 5822 5815 5808 5804 5801 5797 5794 5790 5784 5782 5777 5772 5768 5765 5761 5757 5753 5750 5747 5745 5743 5740 5737 5734 5732 5730 5728 5726 5724 5722 5719 5717 5715 5713 5712 5710
5764 5770 5784 5792 5794 5796 5799 5799 5801 5804 5817 5822 5821 5818 5814 5809 5807 5807 5805 5800 5795 5789 5785 5781 5776 5770 5766 5762 5758 5754 5751 5747 5745 5743 5740 5737 5735 5732 5729 5726 5724 5722 5719 5717 5714 5712 5710 5708 5707
5768 5774 5781 5787 5790 5798 5796 5800 5800 5804 5815 5813 5812 5810 5812 5812 5809 5807 5804 5799 5797 5793 5788 5784 5778 5774 5769 5764 5760 5757 5752 5748 5745 5743 5740 5737 5734 5731 5728 5724 5721 5719 5717 5714 5712 5709 5707 5704 5702
5771 5764 5769 5781 5787 5795 5796 5789 5798 5808 5808 5804 5805 5807 5808 5811 5809 5808 5808 5803 5800 5795 5790 5784 5781 5775 5770 5766 5761 5758 5754 5749 5745 5742 5739 5735 5732 5728 5724 5720 5716 5714 5712 5709 5706 5703 5700 5698 5695
5757 5751 5745 5769 5783 5793 5784 5769 5799 5808 5802 5797 5799 5802 5803 5804 5807 5810 5810 5807 5802 5796 5789 5785 5782 5775 5770 5765 5760 5757 5753 5747 5743 5738 5734 5731 5727 5723 5718 5713 5709 5707 5704 5701 5697 5694 5690 5687 5684
5734 5729 5737 5756 5780 5785 5779 5772 5799 5806 5800 5795 5797 5799 5801 5800 5802 5807 5809 5807 5803 5799 5792 5784 5780 5774 5769 5763 5757 5753 5748 5743 5738 5732 5728 5723 5719 5715 5710 5705 5701 5698 5694 5691 5689 5683 5680 5675 5673
5717 5725 5733 5742 5767 5773 5767 5771 5794 5801 5798 5795 5797 5798 5799 5799 5803 5809 5809 5807 5801 5796 5791 5784 5778 5772 5766 5758 5751 5744 5740 5735 5730 5725 5720 5715 5710 5705 5701 5695 5691 5688 5684 5679 5676 5672 5668 5664 5661
5728 5724 5723 5741 5763 5758 5757 5765 5786 5799 5795 5792 5794 5797 5799 5802 5806 5805 5804 5801 5795 5790 5784 5779 5772 5767 5761 5751 5743 5735 5728 5724 5720 5715 5710 5706 5701 5696 5690 5684 5679 5676 5671 5667 5664 5660 5655 5651 5649
5723 5716 5720 5738 5759 5757 5752 5757 5777 5792 5795 5797 5798 5798 5800 5799 5798 5796 5794 5793 5789 5783 5777 5772 5766 5760 5754 5746 5738 5730 5722 5715 5709 5704 5699 5694 5690 5686 5680 5674 5669 5664 5660 5655 5651 5648 5642 5638 5635
5717 5714 5720 5727 5747 5751 5749 5744 5760 5781 5795 5801 5802 5804 5802 5800 5797 5795 5790 5787 5782 5775 5770 5765 5758 5752 5745 5738 5728 5718 5711 5704 5697 5691 5686 5681 5678 5673 5669 5664 5657 5651 5647 5642 5638 5634 5630 5623 5619
5709 5731 5733 5732 5724 5717 5735 5710 5740 5762 5775 5786 5792 5794 5796 5798 5797 5793 5788 5781 5774 5767 5761 5755 5749 5742 5734 5727 5719 5711 5702 5694 5687 5682 5676 5671 5667 5661 5656 5651 5645 5639 5634 5630 5626 5621 5617 5612 5605
5721 5738 5734 5732 5723 5714 5720 5709 5721 5749 5759 5773 5785 5790 5791 5792 5791 5787 5782 5774 5765 5758 5751 5745 5738 5731 5726 5719 5711 5703 5695 5687 5679 5674 5668 5662 5657 5652 5646 5640 5634 5628 5622 5617 5613 5609 5605 5599 5593
5737 5733 5727 5714 5702 5691 5710 5707 5706 5736 5755 5768 5779 5785 5788 5787 5782 5775 5768 5761 5753 5746 5740 5732 5726 5718 5713 5707 5700 5694 5687 5679 5671 5665 5659 5652 5646 5641 5635 5629 5622 5616 5611 5606 5601 5597 5592 5587 5582
5728 5702 5680 5681 5670 5679 5708 5706 5709 5746 5760 5765 5771 5774 5778 5776 5769 5761 5754 5747 5739 5732 5726 5720 5713 5705 5700 5695 5689 5683 5678 5671 5664 5657 5650 5642 5635 5629 5623 5618 5611 5605 5600 5594 5590 5585 5580 5575 5569
5717 5706 5677 5666 5665 5677 5702 5698 5716 5746 5758 5764 5764 5763 5761 5757 5752 5745 5738 5731 5723 5716 5709 5704 5697 5690 5686 5682 5675 5670 5665 5659 5653 5647 5640 5632 5625 5618 5612 5606 5600 5594 5588 5583 5578 5573 5568 5563 5557
5714 5705 5709 5686 5680 5674 5682 5703 5722 5737 5741 5745 5744 5742 5738 5735 5731 5726 5719 5713 5706 5699 5692 5688 5682 5676 5671 5667 5662 5656 5650 5645 5639 5633 5626 5620 5613 5606 5599 5593 5587 5581 5576 5570 5565 5559 5554 5548 5543
5730 5720 5692 5676 5663 5658 5676 5688 5692 5709 5715 5723 5723 5721 5719 5715 5711 5706 5701 5695 5690 5684 5679 5673 5667 5662 5657 5653 5648 5641 5635 5630 5624 5618 5611 5605 5598 5592 5585 5579 5573 5567 5562 5556 5550 5543 5537 5532 5526
5717 5713 5700 5681 5676 5662 5660 5668 5698 5700 5707 5710 5710 5708 5706 5701 5696 5690 5684 5679 5674 5669 5664 5658 5652 5646 5641 5637 5632 5626 5621 5615 5609 5602 5595 5589 5583 5576 5570 5564 5558 5552 5545 5539 5532 5526 5520 5515 5509
5717 5709 5697 5678 5674 5671 5662 5659 5690 5693 5698 5701 5699 5697 5692 5686 5681 5675 5669 5663 5659 5653 5649 5643 5637 5631 5626 5622 5616 5610 5605 5599 5593 5586 5579 5573 5567 5561 5554 5548 5542 5535 5527 5521 5515 5509 5503 5498 5493